[[{"header":{"parameterUnit":"m.s-1","parameterCategory":1,"la1":30.2991,"la2":30.254,"lo1":-89.0895,"lo2":-89.0444,"dy":0.0017,"dx":0.0017,"nx":28,"ny":28,"refTime":"2025-09-05T03:00:00:Z","depth":0,"parameterNumber":2,"parameterNumberName":"U-component_of_WINDS"},"data":[0,0,0,0,0,0,0,0,0,0,0,0,0,0,0,0,0,0,0,0,0,0,0,0,0,0,0,0,0,0,0,0,0,0,0,0,0,0,0,0,0,0,0,0,0,0,0,0,0,0,0,0,0,0,0,0,0,0,1.0889,1.089,0,1.0936,1.0937,1.0937,1.0965,1.0965,1.0965,1.0965,1.101,1.1011,1.1012,0,0,0,0,0,0,0,0,0,0,0,0,0,1.0819,1.082,1.0889,1.089,1.089,1.0936,1.0937,1.0937,1.0965,1.0965,1.0965,1.0965,1.101,1.1011,1.1012,0,0,0,0,0,0,0,0,0,0,0,0,0,1.0856,1.082,1.0889,1.091,1.0912,1.0936,1.0937,1.0937,1.0965,1.0965,1.0965,1.0965,1.1009,1.1011,1.1012,1.1018,0,0,1.1017,1.1018,0,0,0,0,0,0,0,0,1.0854,1.0858,1.0906,1.0908,1.0911,1.0945,1.0928,1.0964,1.0965,1.0945,1.0965,1.0965,1.0988,1.0991,1.1,1.1021,1.1023,1.1018,1.1018,1.1019,1.102,0,0,0,0,0,0,0,1.0851,1.0857,1.0908,1.0907,1.091,1.0915,1.0921,1.0935,1.0964,1.0946,1.0949,1.0954,1.0989,1.0998,1.1001,1.1023,1.1017,1.1019,1.102,1.1021,1.105,1.1049,0,0,0,0,0,0,1.0846,1.0854,1.0906,1.0909,1.0882,1.0916,1.0922,1.0934,1.0964,1.0969,1.0954,1.0955,1.0995,1.0999,1.1003,1.1011,1.1019,1.1021,1.1022,1.105,1.1049,1.1049,0,0,0,0,0,0,1.0844,1.085,1.0904,1.0882,1.089,1.0917,1.093,1.0934,1.0943,1.097,1.0975,1.0957,1.0995,1.1,1.1014,1.1013,1.1021,1.1023,1.105,1.105,1.1049,1.1028,0,0,0,0,0,0,1.0842,1.085,1.0853,1.0882,1.0891,1.0916,1.093,1.0935,1.0946,1.0949,1.0975,1.0979,1.0996,1.1012,1.1016,1.1015,1.1024,1.105,1.105,1.1049,1.1029,1.1027,1.1025,0,0,0,0,0,1.084,1.0845,1.0853,1.0859,1.0896,1.0916,1.0921,1.0941,1.0946,1.0949,1.0966,1.0979,1.1012,1.1013,1.1018,1.1017,1.105,1.105,1.1049,1.1029,1.1027,1.1025,0,0,0,0,0,0,1.0815,1.0849,1.0859,1.0874,1.0892,1.0921,1.0926,1.0938,1.0954,1.0955,1.0978,1.0984,1.0995,1.1008,1.1008,1.1024,1.1033,1.1033,1.1016,1.1013,1.1012,1.1008,1.1025,0,0,0,0,0,1.0811,1.0826,1.0855,1.0865,1.0874,1.0898,1.0907,1.0921,1.094,1.0948,1.0966,1.0983,1.0997,1.1006,1.1021,1.103,1.1036,1.1032,1.1031,1.1029,1.1029,1.1034,1.1032,1.1048,1.1048,1.1048,0,0,1.0803,1.0824,1.0832,1.086,1.0876,1.0889,1.0904,1.0918,1.0927,1.0949,1.0964,1.0977,1.0998,1.1009,1.1015,1.102,1.1026,1.1028,1.1027,1.1028,1.1033,1.1031,1.103,1.1048,1.1048,1.1048,0,0,1.0796,1.0814,1.0824,1.0839,1.0863,1.0879,1.0881,1.0907,1.0918,1.0932,1.0949,1.096,1.0984,1.0998,1.1008,1.1004,1.1015,1.1008,1.0998,1.1002,1.1001,1.1,1.0998,1.0997,1.1008,1.1008,1.1008,0,1.0784,1.0806,1.0827,1.084,1.0851,1.0872,1.0882,1.0895,1.0921,1.0928,1.0933,1.0964,1.0979,1.0993,1.0992,1.1,1.1002,1.1005,1.1,1.0999,1.0998,1.0996,1.0995,1.1007,1.1007,1.1007,1.1007,0,1.0788,1.0803,1.0808,1.0834,1.0846,1.0856,1.0878,1.0887,1.0899,1.0914,1.0928,1.0947,1.0965,1.0969,1.0981,1.0985,1.0987,1.0996,1.1005,1.0995,1.0994,1.0993,1.1005,1.1005,1.1006,1.1006,0,0,1.0768,1.0805,1.0806,1.0818,1.0844,1.0855,1.0866,1.0884,1.0891,1.0908,1.0917,1.0936,1.0944,1.0955,1.0969,1.0972,1.0966,1.098,1.0981,1.0976,1.097,1.0963,1.0962,1.0974,1.0974,1.0974,1.0968,0,1.0765,1.0787,1.0806,1.082,1.0833,1.0852,1.0861,1.0877,1.089,1.0902,1.0917,1.093,1.094,1.0946,1.0951,1.0966,1.0965,1.0967,1.0981,1.0981,1.0975,1.0961,1.0954,1.0947,1.0967,1.0967,1.0967,0,1.0764,1.0781,1.0796,1.082,1.0826,1.0834,1.0852,1.0863,1.0881,1.089,1.0902,1.0916,1.0926,1.0934,1.0948,1.0949,1.0955,1.0963,1.0964,1.0965,1.0974,1.0962,1.0946,1.0944,1.0967,1.0967,1.0967,0,1.0747,1.0773,1.0785,1.0794,1.0823,1.0827,1.0839,1.0858,1.0867,1.0882,1.0887,1.0903,1.0911,1.0922,1.0939,1.0943,1.0951,1.096,1.0958,1.0957,1.0958,1.0958,1.0943,1.0964,1.0964,1.0964,1.0964,0,1.0741,1.075,1.0778,1.0785,1.0795,1.0815,1.0824,1.0837,1.0852,1.0862,1.0879,1.0887,1.0909,1.0919,1.0932,1.0941,1.0945,1.0951,1.0955,1.095,1.0949,1.0954,1.0955,1.0963,1.0963,1.0963,1.0963,0,1.0724,1.0743,1.0758,1.0783,1.0789,1.0795,1.0816,1.0823,1.0837,1.0848,1.0852,1.0873,1.0886,1.0904,1.0922,1.093,1.0937,1.0942,1.0931,1.0933,1.0929,1.0929,1.0916,1.0915,1.0937,1.0937,1.0937,0,1.0719,1.0726,1.0751,1.0759,1.077,1.0783,1.0792,1.0812,1.0821,1.084,1.0845,1.0859,1.0871,1.089,1.0906,1.092,1.0925,1.092,1.0928,1.0922,1.0924,1.0923,1.0923,1.0918,1.0918,1.0918,1.0917,0,1.0708,1.0716,1.073,1.0746,1.0757,1.077,1.0785,1.079,1.0812,1.0821,1.0834,1.0843,1.0861,1.0875,1.089,1.0901,1.0912,1.0915,1.0915,1.0909,1.0902,1.0905,1.0925,1.0915,1.0915,1.0915,1.0916,1.0916,1.0696,1.0703,1.0721,1.0735,1.0747,1.076,1.0767,1.0782,1.0793,1.081,1.0821,1.0833,1.0849,1.087,1.088,1.0889,1.0894,1.0894,1.0894,1.0894,1.0892,1.0901,1.0892,1.0892,1.0892,1.0892,1.0892,0,1.0685,1.0698,1.071,1.0729,1.0739,1.075,1.0765,1.0773,1.0784,1.0798,1.0809,1.0823,1.0836,1.0853,1.0866,1.0869,1.0875,1.0872,1.0872,1.0874,1.0887,1.0885,1.0867,1.0867,1.0867,1.0867,1.0867,1.0867,1.0681,1.0692,1.0702,1.0718,1.073,1.0743,1.0751,1.0762,1.0773,1.0788,1.0798,1.0809,1.0824,1.0838,1.0849,1.0854,1.0857,1.0853,1.0859,1.0871,1.0873,1.0875,1.0874,1.0854,1.0854,1.0845,1.0844,1.0844]},{"header":{"parameterUnit":"m.s-1","parameterCategory":1,"la1":30.2991,"la2":30.254,"lo1":-89.0895,"lo2":-89.0444,"dy":0.0017,"dx":0.0017,"nx":28,"ny":28,"refTime":"2025-09-05T03:00:00:Z","depth":0,"parameterNumber":3,"parameterNumberName":"V-component_of_WINDS"},"data":[0,0,0,0,0,0,0,0,0,0,0,0,0,0,0,0,0,0,0,0,0,0,0,0,0,0,0,0,0,0,0,0,0,0,0,0,0,0,0,0,0,0,0,0,0,0,0,0,0,0,0,0,0,0,0,0,0,0,0.6626,0.6625,0,0.6541,0.654,0.6539,0.6471,0.6471,0.647,0.647,0.6379,0.6377,0.6375,0,0,0,0,0,0,0,0,0,0,0,0,0,0.6727,0.6725,0.6626,0.6625,0.6624,0.6541,0.654,0.6539,0.6472,0.6471,0.647,0.6469,0.6379,0.6377,0.6375,0,0,0,0,0,0,0,0,0,0,0,0,0,0.6666,0.6725,0.6626,0.6581,0.6576,0.6541,0.654,0.6538,0.6472,0.6471,0.647,0.6469,0.638,0.6377,0.6375,0.6378,0,0,0.6367,0.6365,0,0,0,0,0,0,0,0,0.667,0.6663,0.6588,0.6584,0.6578,0.6516,0.6542,0.6484,0.6472,0.6511,0.647,0.6468,0.6425,0.6419,0.6405,0.6374,0.637,0.6366,0.6365,0.6363,0.6363,0,0,0,0,0,0,0,0.6674,0.6666,0.6592,0.6587,0.6581,0.6563,0.6553,0.6531,0.6474,0.6508,0.6503,0.6494,0.6422,0.6407,0.6402,0.6368,0.6366,0.6364,0.6362,0.6361,0.6332,0.6333,0,0,0,0,0,0,0.6686,0.667,0.6595,0.659,0.6623,0.6562,0.6551,0.6537,0.6475,0.6464,0.6494,0.6491,0.6412,0.6405,0.6398,0.6396,0.6364,0.6361,0.6359,0.6331,0.6332,0.6333,0,0,0,0,0,0,0.6688,0.668,0.6598,0.6628,0.6617,0.6561,0.6546,0.6536,0.6521,0.6465,0.6454,0.649,0.6411,0.6402,0.6383,0.6392,0.636,0.6357,0.633,0.6332,0.6333,0.6392,0,0,0,0,0,0,0.6692,0.6681,0.6683,0.6629,0.6615,0.6586,0.6546,0.6535,0.6517,0.6511,0.6458,0.6448,0.641,0.6387,0.638,0.6388,0.6355,0.6329,0.6331,0.6332,0.6389,0.6395,0.6401,0,0,0,0,0,0.6695,0.6703,0.6683,0.6675,0.6617,0.6587,0.6579,0.6536,0.6518,0.6518,0.6482,0.645,0.6392,0.6386,0.6377,0.6384,0.6329,0.633,0.6332,0.6387,0.6394,0.64,0,0,0,0,0,0,0.6759,0.6695,0.6673,0.6663,0.6631,0.6576,0.6575,0.6546,0.6517,0.6513,0.6459,0.6448,0.6434,0.6407,0.6401,0.6382,0.6356,0.6356,0.64,0.6407,0.6413,0.6419,0.6353,0,0,0,0,0,0.6772,0.6754,0.6699,0.6696,0.6681,0.6631,0.6616,0.6586,0.655,0.6536,0.6498,0.6463,0.6436,0.642,0.6393,0.6385,0.6371,0.6385,0.6391,0.6396,0.6396,0.6387,0.6392,0.634,0.634,0.634,0,0,0.6798,0.6761,0.6753,0.6708,0.6679,0.666,0.662,0.6602,0.6587,0.6532,0.6512,0.6483,0.644,0.6426,0.6417,0.6403,0.6408,0.6398,0.6403,0.64,0.639,0.6395,0.6399,0.6341,0.6341,0.634,0,0,0.6837,0.6808,0.6801,0.6773,0.673,0.6697,0.6695,0.6644,0.6622,0.6601,0.6559,0.6539,0.6496,0.6467,0.6446,0.6472,0.644,0.6464,0.6494,0.6486,0.649,0.6493,0.65,0.6504,0.6465,0.6465,0.6465,0,0.6875,0.6846,0.6801,0.6786,0.6766,0.6716,0.6707,0.6682,0.6633,0.6619,0.6604,0.6547,0.6515,0.6492,0.6498,0.6484,0.6478,0.647,0.6493,0.6496,0.6498,0.6504,0.6507,0.6468,0.6468,0.6468,0.6467,0,0.6894,0.6874,0.6874,0.6827,0.6808,0.6796,0.6747,0.6732,0.6703,0.6671,0.6648,0.6608,0.6571,0.6563,0.6535,0.6535,0.6527,0.6503,0.6476,0.6507,0.6512,0.6514,0.6473,0.6472,0.6471,0.647,0,0,0.697,0.6898,0.6899,0.6876,0.6825,0.6808,0.6793,0.6757,0.6744,0.6711,0.6696,0.6659,0.6636,0.6613,0.658,0.6574,0.6594,0.655,0.6548,0.6558,0.6589,0.6606,0.661,0.6573,0.6573,0.6573,0.6592,0,0.6999,0.697,0.6929,0.6913,0.6893,0.6845,0.6831,0.6797,0.6766,0.6743,0.6708,0.6682,0.6655,0.664,0.6631,0.6593,0.6599,0.6591,0.6556,0.6555,0.6567,0.6613,0.6631,0.6651,0.6594,0.6594,0.6594,0,0.7029,0.6999,0.6982,0.693,0.692,0.6909,0.6871,0.6851,0.681,0.6788,0.6761,0.6726,0.6705,0.6681,0.665,0.6646,0.6629,0.6608,0.6607,0.6601,0.6576,0.6606,0.6657,0.6659,0.6597,0.6597,0.6597,0,0.7084,0.7039,0.7022,0.7005,0.6945,0.6937,0.6911,0.687,0.6851,0.6818,0.6804,0.6769,0.6749,0.6722,0.6677,0.6664,0.665,0.6623,0.6629,0.663,0.6628,0.6628,0.6675,0.662,0.6619,0.6619,0.6619,0,0.712,0.7111,0.7046,0.7036,0.7023,0.6974,0.6963,0.6932,0.6895,0.6877,0.6833,0.6816,0.6758,0.6734,0.6699,0.6677,0.6669,0.6649,0.6639,0.6652,0.6654,0.6639,0.6636,0.662,0.662,0.662,0.662,0,0.7179,0.7136,0.7114,0.7058,0.7044,0.7037,0.6988,0.6975,0.6941,0.6918,0.691,0.6856,0.6824,0.6777,0.6732,0.6708,0.6691,0.6677,0.6706,0.6699,0.6707,0.6707,0.6744,0.6746,0.6692,0.6692,0.6693,0,0.7205,0.7196,0.714,0.7124,0.71,0.7076,0.7056,0.7007,0.6988,0.694,0.6932,0.6897,0.6867,0.6819,0.6775,0.6739,0.6722,0.6738,0.6716,0.6729,0.672,0.672,0.6718,0.6742,0.6743,0.6744,0.6745,0,0.7253,0.7231,0.7205,0.717,0.7147,0.7117,0.7085,0.7075,0.7018,0.6998,0.6966,0.6943,0.6896,0.6862,0.682,0.6791,0.6757,0.6752,0.6751,0.6763,0.6779,0.6768,0.6717,0.6751,0.675,0.675,0.6749,0.6749,0.7294,0.7284,0.7242,0.7213,0.7184,0.7154,0.7139,0.7102,0.7075,0.7034,0.7007,0.6976,0.6932,0.6873,0.6846,0.6819,0.6805,0.6804,0.6804,0.6804,0.6808,0.6785,0.6812,0.6811,0.6811,0.6811,0.6811,0,0.7339,0.7309,0.7283,0.724,0.7216,0.7188,0.715,0.7132,0.7106,0.7069,0.704,0.7002,0.6968,0.6921,0.6883,0.687,0.6854,0.6862,0.6861,0.6855,0.6824,0.6827,0.6876,0.6875,0.6875,0.6875,0.6875,0.6875,0.7359,0.7339,0.7313,0.7277,0.7247,0.7217,0.7198,0.7169,0.7139,0.7099,0.7071,0.7041,0.6999,0.6957,0.6924,0.691,0.6897,0.691,0.6892,0.6863,0.6857,0.6852,0.6855,0.6908,0.6908,0.6924,0.6925,0.6925]}]]